Location: Slidell
(30.2789°N, 89.7378°W)
Time: 01:59:54
(UTC-05:00)

Daily predictions for brighter satellites

Satellite Brightness Start Highest point End
(mag) Time Altitude Azimuth Time Altitude Azimuth Time Altitude Azimuth
ATLAS 5 CENTAUR R/B 4.3 03:15:16 19° NE 03:15:16 19° NE 03:16:40 10° NE
SL-16 R/B 3.4 03:23:32 44° NE 03:23:32 44° NE 03:28:27 10° N
Cosmos 1709 Rocket 4.4 03:36:23 10° N 03:41:40 58° NE 03:41:40 58° NE
CZ-2D R/B 3.5 03:40:58 10° NNE 03:43:49 33° NNE 03:43:49 33° NNE
ARIANE 5 R/B 4.2 03:43:07 10° N 03:45:27 27° N 03:45:27 27° N
USA 234 3.8 03:45:01 10° NNE 03:50:41 47° NNW 03:50:41 47° NNW
COSMOS 2406 3.7 03:58:36 55° E 03:58:36 55° E 04:04:03 10° NNE
Atlas Centaur 2 3.6 04:04:52 22° ESE 04:04:52 22° ESE 04:06:56 10° E
Cosmos 2369 Rocket 4.2 04:05:16 10° NNW 04:06:18 16° NNW 04:06:18 16° NNW
MOS 1-B 4.4 04:10:25 10° N 04:15:33 63° NW 04:15:33 63° NW
Resurs 1-4 Rocket 3.3 04:11:49 10° N 04:14:50 30° NNW 04:14:50 30° NNW
CZ-3 R/B 4.2 03:15:12 10° W 04:17:22 72° SSW 04:29:10 10° ESE
CZ-4B R/B 3.8 04:12:55 10° NNE 04:18:02 49° E 04:19:40 36° SSE
CENTAUR R/B 2.6 04:20:07 56° NW 04:20:07 56° NW 04:26:31 10° NNE
Okean O Rocket 1.8 04:22:02 10° NNE 04:26:03 69° NE 04:26:03 69° NE
ADEOS II 4.1 04:25:05 10° NE 04:29:21 25° E 04:33:36 10° SSE
Cosmos 1943 Rocket 2.3 04:24:10 10° NNW 04:29:50 75° ENE 04:35:26 10° SSE
ARGOS Delta rocket 4.2 04:26:08 10° N 04:29:24 48° NNW 04:29:24 48° NNW
Cosmos 1703 Rocket 3.9 04:30:58 56° SE 04:31:30 62° E 04:35:56 10° NNE
Cosmos 1408 3.7 04:31:53 10° N 04:35:29 45° E 04:36:27 36° ESE
Sich 1 Rocket 3.4 04:37:32 10° N 04:41:57 89° WSW 04:42:27 70° S
IRS-1C Rocket 4.1 04:44:03 10° N 04:49:13 58° WNW 04:50:11 49° WSW
Cosmos 1825 2.2 04:45:47 10° N 04:49:34 77° E 04:50:26 50° SSE
PAYLOAD B 4.2 04:49:42 10° N 04:55:10 66° WNW 04:57:26 36° SW
PSLV R/B 4.2 04:52:22 10° NNE 04:56:41 55° E 05:00:22 14° S
ATLAS 5 CENTAUR R/B 4.0 04:56:50 12° NW 04:56:56 12° NW 04:59:02 10° NNW
Cosmos 1656 Rocket 4.2 04:53:40 10° N 04:59:00 58° ENE 05:04:18 10° SSE
Okean 1-7 2.9 05:03:33 28° S 05:05:47 82° W 05:10:07 10° N
SL-16 R/B 4.1 05:08:38 16° WNW 05:08:38 16° WNW 05:10:42 10° NW
Cosmos 407 Rocket 3.4 05:04:13 27° SSW 05:07:05 77° WNW 05:12:22 10° NNE
BREEZE-M DEB (TANK) 4.5 05:07:28 28° W 05:10:17 54° NNW 05:28:25 10° NE
CZ-2C R/B 3.9 05:11:56 19° SSW 05:14:48 44° W 05:19:03 10° NNW
Cosmos 1862 3.7 05:12:13 10° NNW 05:15:56 39° W 05:16:44 35° WSW
BREEZE M DEB (TANK) 4.0 05:15:34 10° SSE 05:16:54 14° ESE 05:18:37 10° E
Meteor 1-26 Rocket 4.2 05:12:26 12° SSW 05:17:44 68° W 05:23:36 10° N
Okean 2 Rocket 3.1 05:13:19 10° N 05:17:51 85° E 05:22:22 10° S
Nadezhda 1 Rocket 4.3 05:15:04 21° SW 05:18:53 44° W 05:24:54 10° N
SeaSat 1 2.5 05:16:08 10° S 05:20:54 52° WSW 05:25:43 10° NW
Cosmos 1140 Rocket 4.1 05:21:44 10° S 05:26:43 55° ESE 05:31:44 10° NNE
Feng Yun 1-1 Rocket 4.1 05:23:01 10° N 05:28:25 82° WNW 05:33:53 10° SSW
Cosmos 2181 Rocket 4.0 05:27:10 10° S 05:33:38 83° W 05:40:04 10° N
GPS 2-05 Rocket1 3.5 05:32:54 21° WNW 05:34:49 43° NNW 05:37:58 10° ENE
AVUM R/B 4.4 05:34:27 22° W 05:35:07 24° WNW 05:37:52 10° N
Meteor 1-14 Rocket 4.3 05:29:38 10° N 05:35:31 86° W 05:41:29 10° S
Cosmos 1782 Rocket 3.9 05:32:52 10° NNW 05:36:57 41° W 05:41:00 10° SSW
CZ-4B R/B 4.3 05:35:30 10° NNW 05:38:00 17° WNW 05:38:36 17° W
Geosat 4.4 05:33:25 10° N 05:38:10 44° WNW 05:42:22 13° SW
COSMOS 2487 3.8 05:41:16 18° WSW 05:42:35 23° WNW 05:45:31 10° NNW
MOS 1 Rocket 3.4 05:39:32 10° NNE 05:43:48 67° E 05:48:06 10° S
Ariane Rocket 4.1 05:40:16 10° NNE 05:45:08 46° E 05:50:00 10° S
Meteor PRIRODA 4.1 05:44:17 10° N 05:47:52 43° WNW 05:51:26 10° SSW
Cosmos 1782 2.8 05:46:52 10° S 05:50:53 88° E 05:54:56 10° N
Atlas Centaur 2 1.8 05:47:32 14° W 05:51:20 84° S 05:56:59 10° E
NOAA 6 4.1 05:48:16 10° NNE 05:53:27 85° ESE 05:58:37 10° SSW
Meteor 1-10 Rocket 4.4 05:47:45 10° S 05:53:38 88° E 05:59:25 10° N
Cosmos 2154 Rocket 4.3 05:48:40 10° NNW 05:54:40 47° W 06:00:41 10° SSW
Timation 2 Rocket 4.0 05:51:05 10° SSW 05:57:25 88° WNW 06:03:32 10° NNE
Thor Agena Rocket 4.3 05:54:47 10° SSW 05:59:10 29° W 06:03:37 10° NW
Meteor 2-10 Rocket 4.0 05:53:55 10° SSW 05:59:33 52° W 06:05:08 10° N
Cosmos 1606 3.0 05:59:31 10° S 06:03:24 73° E 06:07:19 10° N
ADEOS Rocket 4.1 05:59:01 10° N 06:06:05 40° WNW 06:13:02 10° SW
ADEOS II 3.0 06:04:28 10° NNW 06:08:59 30° WNW 06:13:29 10° SW
Okean-O 4.0 06:06:26 10° NNW 06:09:44 21° WNW 06:13:03 10° WSW
Cosmos 1356 3.6 06:07:01 10° N 06:10:34 82° E 06:14:06 10° S
COBE Rocket 4.0 06:06:08 10° N 06:11:15 68° WNW 06:16:14 10° SSW
Cosmos 2082 Rocket 2.3 06:06:40 10° SSW 06:12:23 87° WNW 06:18:07 10° NNE
